CAPE
1591 1218 1094 1465 851 1308 1005 1092 1308 1699 1637 1568 1640 1692 1893 1858 1755 1611 1697 2073 2313 1419
1519 1588 1213 1278 1659 1274 1604 1324 1789 1845 1850 1662 1648 1773 1681 1798 1694 1837 1853 1345 1760 1805
1158 1446 1493 1889 1355 1520 1521 1637 1641 1498 1552 1688 1743 1835 2062 1524 1637 1851 1654 1165 1076 1820
842 930 1469 1546 1828 1599 1696 1688 1698 1476 1389 1650 1808 1766 2100 1976 1383 1622 1752 1793 1585 1743
836 979 1006 1387 1294 1415 1666 1788 1724 1437 1475 1548 1564 1712 1914 1745 1233 1384 1440 1461 1500 1574
874 952 895 880 1140 1226 1483 1634 1484 1509 1415 1107 1038 1141 1555 1780 1427 1432 1350 1427 1528 1538
1113 920 807 935 1153 1213 1369 1503 1515 1511 1202 851 677 775 848 1336 1560 1558 1246 1390 1356 1262
1326 1417 1278 1183 1268 1415 1345 1242 1460 1592 1345 1095 1017 1113 1168 1349 1559 1516 1339 1232 1302 927
1346 1273 1143 1598 1687 1751 1783 1649 1618 1558 1430 1266 822 20 0 52 1213 1286 1410 1491 1344 1250
1233 1456 1297 1547 927 1214 1534 1552 1638 1535 1409 1119 1173 0 0 0 328 863 1171 1290 1443 1387
1490 1264 1245 1365 1370 1348 519 366 298 1045 1136 1508 1346 0 0 0 30 172 639 1018 1078 1405
866 936 1103 453 702 977 872 138 143 168 552 563 387 0 0 0 95 45 63 36 24 271
244 241 161 168 149 324 298 221 179 127 47 1 2 0 0 0 3 12 0 0 0 0
382 468 480 443 123 120 119 72 4 2 2 2 1 0 0 0 2 3 2 0 0 0
CIN
0 0 0 -1 0 0 0 0 0 0 0 0 0 0 0 0 0 0 0 0 0 0
0 0 0 0 0 0 0 0 0 0 0 0 0 0 0 0 0 0 0 0 0 0
-1 0 0 0 0 0 0 -1 -7 0 0 0 0 0 0 0 0 0 0 0 0 0
0 0 0 0 -1 0 0 0 -1 -2 -1 0 0 0 0 0 0 0 0 0 0 0
-4 -1 0 0 0 0 0 0 0 -3 -2 0 0 0 0 0 0 0 0 0 0 0
-8 -1 0 0 -2 -2 -1 -1 0 -1 -6 -9 -5 0 0 0 0 0 0 0 0 0
-8 -9 -6 0 0 0 0 0 -1 0 -5 -19 -19 -8 -4 0 0 0 0 0 0 0
-2 -1 -1 0 0 0 0 0 0 0 0 -3 -1 0 0 0 0 0 0 0 0 0
-1 -4 -26 -8 0 0 0 0 0 0 0 0 0 -41 0 -133 0 0 0 0 0 0
-6 0 -10 -3 -21 0 -2 -2 0 0 0 0 0 0 0 0 -23 0 0 0 0 0
-1 -1 -3 0 0 -2 -18 -14 -37 0 0 0 -5 0 0 0 -79 -43 -2 0 0 0
0 0 0 -17 0 0 -1 -69 -65 -6 0 -5 -15 0 0 0 -30 -56 -47 -56 -6 -16
-38 -9 -22 -23 -17 -6 0 -1 -2 -3 -11 0 0 0 0 0 0 -14 0 0 0 0
-1 -2 -3 -2 -18 -1 0 0 0 0 0 0 0 0 0 0 0 0 0 0 0 0
Wind_Speed
9 8 10 9 8 6 7 5 5 7 7 7 8 7 6 7 7 4 5 5 5 6
11 11 7 6 6 8 6 6 6 7 8 7 7 7 6 7 5 6 6 5 6 7
13 11 10 7 9 7 5 6 6 7 8 8 8 8 8 8 7 7 7 7 5 6
12 12 11 10 9 9 8 6 7 7 7 7 8 8 8 8 8 8 7 8 7 8
12 11 12 11 10 9 9 7 7 7 7 7 8 8 9 10 9 9 9 9 9 8
13 13 12 12 11 10 10 8 9 8 7 7 8 8 8 9 9 10 9 9 9 9
13 13 12 11 11 11 10 10 9 9 7 7 8 9 9 8 9 10 9 9 10 9
10 7 8 9 10 10 11 10 10 10 8 8 8 8 8 9 8 9 10 9 9 10
8 10 6 7 11 11 10 10 11 11 10 10 9 8 2 6 7 7 9 8 8 9
6 10 5 8 6 13 9 8 10 12 11 11 10 7 4 3 7 6 6 7 8 9
7 8 5 8 9 10 7 5 0 10 11 9 7 8 6 5 6 5 6 6 6 8
3 4 6 6 7 9 8 7 8 9 9 7 4 6 2 4 5 2 3 2 5 3
3 5 6 7 6 7 6 7 6 6 4 3 4 4 2 2 3 4 3 3 4 10
2 3 5 5 2 2 1 3 5 7 5 7 6 4 5 5 4 2 4 4 1 3
Wind_Direction
214 225 213 200 251 210 244 234 199 225 236 224 235 230 236 245 241 211 254 263 290 293
214 226 248 259 208 230 240 255 234 244 242 246 248 241 251 252 249 252 246 251 243 260
211 219 229 224 242 253 260 251 268 248 244 238 243 242 240 252 230 251 260 249 248 266
213 219 219 225 213 230 239 247 251 243 244 245 244 247 238 241 265 249 248 266 265 250
219 221 222 227 237 235 233 232 228 225 237 247 251 247 244 245 266 235 248 237 247 254
221 225 231 233 234 238 241 240 236 226 232 240 243 244 249 246 248 255 252 257 251 246
224 227 232 233 238 243 237 240 233 233 235 236 237 242 247 244 243 252 251 256 261 261
236 253 262 248 251 240 244 243 236 228 229 235 240 245 239 239 248 254 256 252 243 248
234 237 235 252 253 257 247 245 245 241 236 232 243 96 80 286 271 270 269 265 250 243
234 228 229 252 244 256 240 260 245 246 247 250 241 125 182 232 266 271 266 269 262 257
192 206 216 237 234 233 210 206 297 289 255 248 234 157 203 210 257 261 277 270 278 263
186 219 239 239 249 249 229 192 197 221 261 224 196 172 206 276 234 212 61 346 27 301
199 209 234 246 244 241 230 216 199 189 154 94 103 122 34 321 282 215 141 117 104 57
54 335 327 311 54 284 219 94 97 85 74 75 43 38 353 309 247 208 162 143 144 77